Miscellaneous Local Product
Issued by NWS Hastings, NE

Home | Current Version | Previous Version | Graphics & Text | Print | Product List | Glossary On
Versions: 1 2 3 4 5 6 7 8 9 10 11 12 13 14 15 16 17 18 19 20 21 22 23 24 25 26 27 28 29 30 31 32 33 34 35 36 37 38 39 40 41 42 43 44 45 46 47 48 49 50
000
AXUS43 KGID 292302
MISGRI

GID CWA HOURLY WEATHER ROUNDUP
NATIONAL WEATHER SERVICE HASTINGS NE
600 PM CDT SUN MAR 29 2015

NOTE: "FAIR" INDICATES FEW OR NO CLOUDS BELOW 12,000 FEET WITH NO
SIGNIFICANT WEATHER AND/OR OBSTRUCTIONS TO VISIBILITY.

...SOUTH CENTRAL NEBRASKA...

CITY           SKY/WX    TMP DP  RH WIND       PRES   REMARKS
GRAND ISLAND   SUNNY     62  15  16 N17       30.12S
HASTINGS       SUNNY     63  15  15 N18G25    30.11S
KEARNEY        SUNNY     63  12  14 N18       30.13R
ORD            SUNNY     62  10  13 NW17G26   30.10S
YORK           SUNNY     61  23  23 N13G23    30.10S
AURORA         SUNNY     62  18  18 N15G25    30.10S
LEXINGTON      SUNNY     64  12  13 N14       30.13F
HOLDREGE       SUNNY     63  10  13 N16       30.13S
HEBRON         SUNNY     63  17  17 N16G25    30.10S

...NEBRASKA PANHANDLE...

CITY           SKY/WX    TMP DP  RH WIND       PRES   REMARKS
CHADRON        MOSUNNY   64  27  24 NW13      30.09F
ALLIANCE       SUNNY     62  25  24 W8        30.11F
SCOTTSBLUFF    PTSUNNY   65  23  20 CALM      30.11F
SIDNEY         SUNNY     61  22  22 CALM      30.15F

...WESTERN AND NORTH CENTRAL NEBRASKA...

CITY           SKY/WX    TMP DP  RH WIND       PRES   REMARKS
VALENTINE      SUNNY     60  18  19 NW13G22   30.11S
AINSWORTH      SUNNY     60  17  18 NW10G16   30.11S
ONEILL         SUNNY     60  17  18 NW15      30.09F
BROKEN BOW     SUNNY     62  17  17 N17G24    30.12F
IMPERIAL         N/A     64  18  17 NW8       30.15F
NORTH PLATTE   SUNNY     63  19  18 NW12      30.14S
MCCOOK         SUNNY     66  16  14 N12       30.13F

...EASTERN NEBRASKA...

CITY           SKY/WX    TMP DP  RH WIND       PRES   REMARKS
NORFOLK        SUNNY     61  20  20 NW21G28   30.06S
SO SIOUX CITY  SUNNY     62  20  19 NW21G32   30.03R
COLUMBUS       SUNNY     61  21  21 N22       30.10R
ALBION         SUNNY     61  15  16 N15       30.09S
OMAHA EPPLEY   SUNNY     62  24  23 N21G29    30.03S
OFFUTT AFB     SUNNY     62  27  26 NW20      30.03S
MILLARD        SUNNY     62  27  25 N12G24    30.04S
LINCOLN        SUNNY     64  25  22 N21       30.08R
NEBRASKA CITY  SUNNY     61  24  24 N14G21    30.05S
BEATRICE       SUNNY     62  30  29 N18G25    30.09R
FALLS CITY     SUNNY     62  31  31 NW18G28   30.05R

...NORTHERN KANSAS...

CITY           SKY/WX    TMP DP  RH WIND       PRES   REMARKS
GOODLAND       SUNNY     64  18  17 VRB7      30.17F
HILL CITY      SUNNY     67  19  16 NE17G24   30.15R
NORTON         CLEAR     64   3   9 N12G21    30.13S
PHILLIPSBURG   SUNNY     70   9   9 N13G18    30.13S
SMITH CENTER   SUNNY     64  16  15 N16G23    30.12S
BELOIT         SUNNY     68  19  15 N20G26    30.10R
HAYS           SUNNY     66  21  18 N17G26    30.14R
RUSSELL        SUNNY     69  24  18 N17G33    30.10R
CONCORDIA      SUNNY     66  20  17 N22G28    30.10R
SALINA         SUNNY     70  29  21 N17       30.08R
TOPEKA         SUNNY     64  40  41 NW17G24   30.05R



USA.gov is the U.S. government's official web portal to all federal, state and local government web resources and services.